Find Lemur-2 Oba-Ni-Jesu

NORAD ID: 58902 Int'l Des: 2024-022 Owner: SPIRE/NSTAR Country: US Constellation: spire operational
LEOCIRCULARRETROGRADE

リアルタイム位置

3D地球を読み込み中...

Lemur-2 Oba-Ni-Jesuについて

説明を読み込み中...

次回通過

Passes for default location (London). Set your location on the main map for personalized predictions.

高度履歴

Loading altitude history...

軌道要素

1 58902U 24022D 26106.08077780 .00110965 00000-0 74178-3 0 9998
2 58902 97.3966 326.3009 0002256 255.8195 104.2819 15.74981595123464
Epoch: Apr 16, 2026 • Age: 16 hours

現在のステータス

高度 359.0 km
速度 7.70 km/s
衛星直下点 77.81°N, 177.47°W
打ち上げ日 Jan 31, 2024
運用期間 2.2 years
タイプ other

技術仕様

分類 Payload
質量 25.00 kg
乾燥質量 25.00 kg
総質量 25.00 kg
長さ 0.40 m
直径 0.20 m
スパン 1.00 m
形状 Box+2 pan
製造者 SPIREG
バスタイプ Cubesat 3U
フェーズステータス In Orbit
所有者/国 SPIRE/NSTAR/US

Most Searched